Wind_Speed
83 89 93 98 98 99 100 101 99 97 97 94 88 84 82 79 76 71 64 56 50 47 49 53 58 62 68 81 82 91 92 100 107 116 126 129 128 122 118 115 111 107 101 100 98 97 94
86 91 95 98 98 98 101 101 100 99 99 94 89 85 82 79 74 69 60 50 41 41 41 44 48 51 55 71 84 89 93 94 102 110 121 129 130 126 123 120 116 111 106 105 102 101 96
88 92 96 98 99 100 102 103 102 102 101 96 93 87 85 80 75 66 55 43 37 33 32 35 38 39 45 65 84 89 89 90 97 105 116 124 132 131 124 123 121 116 111 111 106 103 98
89 92 94 96 97 100 102 104 105 103 101 98 94 90 88 83 77 65 54 43 35 30 28 27 29 31 46 61 79 85 87 88 93 101 109 120 130 133 129 125 124 120 117 113 109 105 100
92 95 98 97 97 100 103 106 106 104 101 98 96 93 91 86 78 64 52 44 36 27 20 22 28 35 47 60 75 81 85 87 92 97 103 115 123 129 132 127 124 121 117 113 111 106 102
93 97 98 99 100 103 104 107 109 105 100 98 97 94 91 85 75 62 53 45 33 24 18 22 29 36 48 60 69 77 77 84 87 93 98 108 118 126 131 129 120 117 115 114 113 110 105
94 98 102 101 102 105 105 107 110 106 101 97 96 93 90 85 76 65 55 43 32 21 13 17 26 35 45 54 62 71 77 81 85 89 94 101 111 118 124 127 123 117 118 118 117 113 110
95 99 103 102 104 105 105 107 108 105 101 99 95 92 89 84 77 65 52 38 30 19 9 12 25 35 39 48 60 71 77 76 79 85 91 96 101 111 119 126 125 120 117 118 117 114 110
99 100 103 103 105 106 106 107 107 104 100 99 96 92 89 83 77 63 52 40 29 19 8 7 23 32 37 47 56 63 65 66 73 81 86 86 92 100 113 119 124 123 121 117 116 114 111
100 101 102 104 106 106 108 107 105 102 99 98 97 92 88 83 76 62 51 39 30 19 11 9 20 31 37 41 47 55 57 63 69 77 79 81 85 91 102 113 119 121 121 120 116 114 112
98 101 104 105 106 106 108 107 104 100 97 96 94 92 88 82 77 64 51 43 32 24 19 15 18 22 27 35 44 50 59 64 65 69 74 76 81 85 95 107 112 118 120 120 119 114 111
95 102 103 106 107 106 105 106 102 97 96 93 91 90 87 80 75 66 53 45 37 27 23 17 14 20 29 35 43 51 57 62 63 67 69 70 75 80 86 95 103 109 114 117 116 116 111
96 100 102 104 102 103 104 104 99 94 93 92 90 88 87 81 75 68 56 48 44 30 26 20 13 13 18 30 40 48 53 56 55 52 63 67 72 76 79 87 96 101 104 108 113 110 111
94 96 100 102 100 102 103 101 97 91 89 90 86 84 83 80 76 70 58 48 49 44 28 21 14 15 23 31 39 45 46 47 45 52 58 61 63 67 69 78 82 90 93 96 101 103 101
93 98 99 100 101 101 100 97 93 89 85 87 83 80 79 77 73 68 60 53 49 46 35 24 15 13 22 30 33 34 34 38 42 48 53 53 56 60 61 66 72 78 86 91 92 96 91
93 98 98 99 99 99 97 91 88 86 83 83 80 76 75 71 68 62 55 47 45 38 32 23 22 9 18 23 25 28 31 33 37 40 43 46 48 50 52 55 64 72 81 86 88 91 95
93 97 96 96 98 99 93 88 84 84 80 78 78 73 70 68 63 59 53 42 39 34 27 20 15 11 5 8 18 22 27 30 34 36 38 41 42 42 45 49 50 59 69 76 85 84 90
93 97 94 93 96 98 92 86 81 81 79 75 73 71 68 63 59 56 51 43 33 34 28 19 12 9 8 10 16 20 25 29 32 33 35 37 39 41 43 43 44 51 60 65 75 85 86
94 90 92 91 92 95 90 85 79 77 78 73 68 66 65 60 56 52 48 43 33 28 28 22 13 6 5 8 14 18 22 26 29 31 34 36 38 39 41 42 44 48 53 57 61 64 73
88 89 87 88 88 89 89 83 77 77 74 73 66 63 59 58 53 48 44 40 34 25 22 23 18 9 4 8 11 16 19 23 26 29 31 34 36 39 41 43 44 44 46 52 60 64 67
88 85 82 84 87 85 84 82 77 74 72 69 65 62 56 55 52 45 41 37 34 25 18 17 17 11 4 4 7 10 14 18 23 26 30 32 32 34 37 41 43 45 46 49 51 51 53
87 83 83 86 82 82 81 76 74 72 69 66 62 60 54 51 49 46 39 34 30 25 17 12 11 10 6 2 3 5 6 11 18 21 25 28 30 30 32 37 40 42 46 45 48 52 53
91 82 82 80 78 80 80 77 74 70 67 63 59 57 52 50 47 44 39 34 28 24 18 11 7 6 4 3 2 3 5 7 10 15 21 27 29 29 29 31 36 42 46 48 49 51 52
89 86 86 79 75 76 79 75 74 70 66 61 56 54 50 48 46 40 40 34 28 25 20 15 9 9 7 8 8 7 8 10 11 10 11 20 23 25 27 27 29 32 37 41 45 49 48
88 87 85 80 75 73 74 75 70 68 65 58 54 51 50 47 43 40 35 34 32 25 22 19 15 12 14 12 11 10 11 11 13 13 14 15 18 22 26 25 24 25 27 31 35 39 42
89 90 86 81 76 70 70 74 71 67 64 56 51 49 49 47 42 40 36 31 30 31 24 21 19 16 18 17 14 10 10 12 11 12 15 17 19 19 21 24 24 24 25 26 28 29 31
91 92 88 83 76 70 70 70 71 68 63 55 49 48 49 47 41 40 36 32 29 30 28 24 22 21 19 22 19 14 11 12 13 13 14 16 17 19 23 25 27 28 29 30 30 32 32
97 95 89 80 75 70 69 69 68 68 63 57 48 47 47 46 41 39 35 34 32 30 28 29 24 24 24 26 23 19 14 15 17 16 15 17 20 21 21 20 21 22 24 26 26 26 27
100 92 85 78 72 69 67 68 68 67 63 57 47 46 46 44 43 40 36 34 32 31 30 29 29 26 28 29 30 25 19 19 22 21 20 19 20 20 22 21 22 22 23 25 25 27 27
Wind_Direction
342 343 345 343 343 342 342 343 344 346 346 344 342 342 340 335 330 323 315 305 293 280 267 255 248 242 227 227 222 220 219 217 214 212 214 213 212 212 215 217 218 216 217 219 219 222 225
343 344 343 343 342 342 342 343 344 347 347 345 344 345 341 336 331 325 318 309 297 281 268 258 250 240 228 219 222 220 218 215 215 213 213 214 213 211 214 215 217 218 216 221 221 222 224
343 343 342 343 342 342 343 343 344 347 348 346 347 347 344 340 336 332 326 318 303 288 270 258 245 234 221 214 217 218 217 214 214 213 213 213 213 212 213 216 215 217 217 219 221 224 224
342 343 340 343 341 343 343 343 345 348 349 347 348 349 346 345 341 338 334 327 313 292 275 257 239 221 210 208 211 217 215 213 212 213 212 213 213 213 211 216 216 215 217 219 222 223 225
341 341 343 343 342 343 344 344 345 348 350 348 350 351 349 348 344 342 338 333 323 308 270 241 227 214 205 205 208 212 212 210 210 211 212 213 214 213 213 214 218 216 217 219 222 224 226
341 342 342 343 343 344 344 345 346 349 350 351 351 353 352 349 348 347 345 341 332 313 275 242 222 210 202 202 206 208 208 209 209 210 211 213 214 214 213 213 218 219 219 220 223 224 226
342 342 343 344 345 345 345 345 347 349 351 352 353 354 354 352 353 353 351 346 343 324 284 240 218 203 199 201 202 204 205 206 207 209 210 213 214 214 213 214 215 220 219 220 221 224 226
341 342 344 344 345 345 346 345 347 349 352 352 354 356 356 355 357 357 356 351 354 350 317 231 205 197 197 196 197 199 202 203 205 208 211 213 214 214 214 213 215 217 222 222 223 224 226
343 344 344 345 346 346 346 346 348 349 352 352 354 357 359 359 1 359 0 4 8 9 13 195 190 187 187 193 198 198 200 201 205 208 212 212 215 215 215 215 216 217 220 224 224 226 227
344 345 345 345 345 347 346 347 348 350 352 353 353 358 1 2 3 2 8 15 20 34 57 127 169 176 180 188 194 194 192 199 204 207 212 212 215 216 215 217 217 218 221 224 226 226 228
343 346 346 345 345 346 346 347 348 350 352 354 353 356 3 3 6 6 13 21 26 36 67 106 143 166 175 181 186 186 191 201 203 206 211 212 214 215 217 216 217 218 220 224 226 229 229
344 346 344 345 344 345 346 347 348 350 350 354 354 356 1 4 8 10 16 25 28 46 65 81 133 164 171 173 179 189 193 202 204 203 209 212 215 216 216 217 218 219 220 223 226 229 232
344 346 344 343 343 345 345 347 348 350 350 353 354 356 359 4 8 14 18 30 34 39 54 63 100 143 158 171 183 192 193 203 208 207 210 213 214 217 214 216 218 219 220 223 226 230 232
344 345 344 342 343 344 345 347 347 349 350 352 354 355 359 2 6 12 17 29 39 38 50 62 93 124 150 170 183 192 197 205 206 206 213 215 217 220 218 219 220 220 220 224 226 228 233
344 344 343 342 343 344 345 346 347 348 351 351 352 355 359 0 5 10 15 23 33 37 34 48 82 123 151 170 181 196 200 203 205 208 215 220 220 223 221 219 220 220 220 222 225 226 229
343 343 343 341 342 343 344 345 346 347 350 350 350 353 356 360 2 8 14 22 28 32 34 35 27 107 152 174 183 190 205 206 210 213 216 220 222 225 226 222 217 217 219 222 225 228 230
341 342 341 341 341 340 345 344 346 345 348 350 348 351 353 356 359 3 11 22 28 31 39 39 40 39 113 178 180 190 201 210 212 215 217 219 223 224 223 223 218 217 219 220 224 226 229
340 341 338 339 340 339 343 343 344 344 344 347 347 346 350 354 355 358 6 15 24 31 32 38 42 83 121 156 173 185 197 205 210 215 217 218 222 225 223 224 222 216 216 221 221 224 229
336 338 338 340 338 340 341 342 343 343 341 343 345 344 345 350 351 355 360 7 18 27 31 28 32 58 122 160 175 189 193 202 208 210 215 217 218 219 223 224 222 220 218 220 220 223 227
337 336 339 340 339 337 338 342 342 341 340 339 342 340 342 344 348 349 354 359 9 18 26 30 31 42 106 158 174 188 198 203 207 210 213 217 220 220 220 222 222 220 219 217 219 221 225
334 333 338 339 337 335 336 338 339 339 339 337 339 337 339 339 343 344 348 353 358 7 11 31 21 28 52 123 141 167 189 200 207 209 210 214 217 219 220 220 220 220 223 227 226 227 227
332 334 337 339 335 332 331 336 337 337 337 336 336 334 334 334 338 337 341 346 349 354 356 350 13 16 29 75 137 154 183 200 200 208 210 210 214 214 216 219 220 221 222 221 224 227 227
334 334 338 338 331 331 329 332 334 334 334 334 334 331 330 328 333 331 332 338 340 341 341 334 318 343 305 311 221 204 196 191 213 218 211 211 211 212 213 217 218 220 221 223 226 228 230
331 333 336 337 331 329 327 330 331 331 331 332 331 328 326 323 327 326 326 329 331 329 327 319 294 260 247 246 254 258 249 231 217 210 219 222 218 218 214 213 212 216 219 223 226 230 233
330 333 335 333 331 329 327 324 327 329 328 330 329 327 321 320 323 322 321 320 322 322 315 309 298 253 240 235 240 258 270 238 219 217 215 217 220 221 218 214 215 216 218 221 225 228 232
329 330 331 330 329 326 326 322 324 326 325 327 327 324 318 318 319 318 316 315 312 311 310 300 292 275 235 235 230 247 268 251 226 212 212 213 214 215 215 220 223 222 219 219 218 219 220
327 327 326 327 327 327 326 322 322 322 322 324 325 321 317 317 317 313 311 309 307 301 301 292 282 267 250 227 228 226 245 236 225 211 203 192 193 202 208 210 214 217 219 221 222 223 223
324 323 324 324 325 324 323 319 320 318 319 321 322 318 316 315 314 309 307 305 304 300 291 287 276 264 250 231 221 219 226 220 216 213 206 195 184 180 179 181 186 193 199 202 204 203 204
320 321 322 323 322 321 322 316 317 315 316 318 320 314 314 313 310 306 306 304 302 296 289 279 276 258 245 232 216 216 218 213 209 210 211 205 199 193 189 192 193 197 200 206 205 206 209
Height
10728 10715 10700 10684 10668 10649 10632 10616 10601 10586 10566 10545 10526 10507 10487 10468 10452 10436 10423 10410 10400 10394 10391 10392 10396 10404 10419 10429 10448 10452 10468 10484 10500 10522 10542 10561 10578 10601 10616 10633 10653 10671 10689 10694 10700 10705 10714
10721 10707 10691 10674 10657 10641 10622 10606 10589 10572 10552 10531 10512 10492 10473 10452 10434 10416 10399 10386 10376 10370 10368 10369 10372 10379 10395 10416 10420 10430 10443 10465 10487 10505 10522 10543 10564 10582 10593 10611 10632 10652 10671 10675 10685 10693 10705
10714 10699 10683 10667 10648 10631 10612 10593 10577 10559 10539 10516 10495 10477 10455 10435 10413 10394 10377 10365 10356 10351 10349 10348 10352 10362 10377 10385 10395 10408 10427 10450 10471 10487 10506 10525 10541 10564 10583 10595 10612 10632 10652 10658 10671 10681 10695
10707 10690 10673 10657 10639 10620 10602 10583 10565 10547 10526 10503 10483 10462 10440 10417 10396 10377 10360 10348 10339 10334 10332 10333 10337 10346 10354 10366 10376 10390 10410 10435 10454 10470 10489 10505 10523 10544 10563 10580 10593 10615 10633 10646 10658 10672 10686
10699 10683 10665 10647 10629 10610 10590 10570 10553 10536 10516 10492 10470 10448 10426 10404 10383 10364 10347 10335 10325 10320 10319 10320 10323 10330 10340 10353 10363 10378 10396 10420 10437 10454 10474 10491 10509 10534 10551 10566 10581 10603 10624 10640 10649 10664 10675
10693 10676 10656 10637 10619 10601 10582 10561 10543 10525 10507 10483 10460 10440 10419 10396 10375 10355 10337 10324 10315 10309 10308 10309 10312 10320 10330 10341 10352 10370 10388 10409 10428 10444 10460 10477 10494 10514 10535 10555 10580 10601 10615 10628 10636 10649 10664
10688 10669 10649 10630 10610 10591 10573 10552 10534 10515 10497 10478 10456 10436 10414 10391 10368 10347 10330 10317 10307 10301 10299 10301 10307 10315 10322 10335 10348 10364 10381 10399 10417 10435 10451 10466 10480 10508 10536 10549 10565 10583 10595 10606 10616 10633 10648
10682 10662 10643 10622 10603 10585 10565 10545 10527 10508 10491 10470 10453 10434 10411 10388 10365 10344 10330 10316 10305 10298 10295 10297 10304 10311 10323 10335 10346 10357 10372 10395 10415 10429 10440 10454 10474 10495 10517 10535 10552 10568 10580 10594 10609 10623 10637
10674 10657 10638 10615 10597 10579 10559 10540 10521 10502 10486 10465 10447 10432 10411 10388 10364 10347 10331 10316 10306 10299 10296 10298 10305 10314 10325 10334 10344 10359 10376 10397 10410 10422 10434 10452 10467 10487 10508 10526 10541 10557 10567 10579 10595 10608 10622
10668 10651 10632 10611 10592 10575 10555 10536 10517 10497 10483 10464 10442 10429 10411 10390 10370 10351 10334 10321 10311 10304 10301 10304 10310 10317 10327 10337 10349 10362 10381 10391 10403 10416 10430 10446 10461 10478 10497 10514 10529 10544 10558 10570 10582 10595 10608
10663 10645 10626 10609 10588 10570 10551 10532 10514 10495 10479 10464 10443 10426 10412 10394 10375 10356 10340 10327 10320 10315 10310 10312 10318 10325 10333 10343 10354 10367 10378 10385 10400 10415 10426 10440 10453 10468 10483 10499 10514 10530 10546 10557 10569 10582 10596
10658 10641 10621 10605 10585 10566 10549 10529 10512 10494 10474 10464 10446 10429 10415 10401 10383 10364 10348 10337 10329 10325 10322 10323 10326 10332 10339 10347 10357 10367 10378 10384 10395 10408 10421 10436 10446 10457 10473 10491 10506 10517 10533 10547 10559 10571 10584
10654 10637 10618 10599 10583 10565 10547 10526 10510 10496 10473 10462 10446 10430 10414 10404 10390 10374 10359 10346 10338 10334 10333 10334 10337 10341 10349 10356 10362 10369 10380 10387 10397 10414 10421 10428 10438 10451 10469 10482 10493 10511 10526 10539 10551 10563 10577
10648 10631 10615 10597 10580 10564 10544 10524 10509 10496 10477 10462 10450 10434 10421 10407 10394 10380 10371 10358 10349 10346 10343 10345 10347 10351 10357 10363 10368 10371 10382 10389 10402 10411 10418 10427 10440 10450 10463 10476 10492 10509 10521 10532 10545 10557 10565
10643 10629 10612 10593 10577 10561 10544 10524 10507 10496 10482 10464 10453 10439 10427 10412 10401 10389 10377 10366 10361 10357 10355 10355 10357 10360 10364 10368 10374 10379 10386 10395 10403 10410 10417 10428 10438 10446 10459 10474 10488 10501 10513 10521 10532 10543 10551
10638 10625 10608 10591 10572 10557 10543 10525 10507 10495 10484 10468 10455 10445 10433 10423 10410 10401 10391 10381 10375 10371 10369 10365 10365 10368 10371 10375 10381 10386 10390 10397 10404 10412 10418 10424 10435 10444 10455 10467 10479 10489 10500 10513 10521 10531 10540
10632 10620 10604 10585 10572 10554 10542 10526 10508 10493 10485 10472 10456 10448 10437 10426 10418 10409 10400 10391 10385 10381 10378 10376 10374 10375 10378 10382 10385 10389 10393 10398 10404 10410 10418 10425 10431 10439 10450 10459 10471 10483 10493 10504 10512 10519 10528
10627 10615 10600 10583 10567 10552 10540 10526 10510 10493 10483 10474 10461 10448 10439 10431 10422 10412 10406 10398 10393 10388 10384 10384 10381 10381 10382 10386 10390 10392 10397 10400 10404 10409 10415 10422 10429 10435 10444 10452 10463 10473 10483 10492 10500 10508 10515
10618 10607 10594 10579 10562 10549 10536 10525 10511 10496 10480 10472 10463 10451 10440 10433 10424 10417 10409 10403 10397 10393 10390 10387 10386 10386 10386 10387 10390 10392 10395 10399 10403 10408 10413 10418 10424 10430 10437 10445 10454 10462 10472 10480 10487 10496 10504
10612 10600 10586 10571 10559 10541 10532 10521 10508 10496 10482 10468 10460 10451 10441 10432 10426 10419 10412 10406 10400 10396 10394 10392 10391 10389 10390 10390 10390 10392 10394 10397 10400 10404 10408 10414 10419 10425 10431 10438 10447 10454 10462 10469 10476 10484 10493
10606 10592 10579 10566 10552 10536 10523 10514 10503 10492 10482 10468 10456 10447 10439 10430 10424 10420 10412 10406 10401 10397 10395 10394 10394 10393 10392 10392 10392 10392 10394 10395 10398 10401 10405 10410 10415 10419 10425 10432 10440 10447 10454 10460 10468 10477 10484
10595 10582 10570 10558 10545 10529 10515 10505 10497 10487 10478 10466 10455 10443 10435 10428 10422 10416 10412 10406 10402 10398 10395 10394 10393 10393 10394 10394 10394 10394 10395 10396 10397 10400 10403 10407 10411 10416 10421 10426 10432 10439 10445 10452 10460 10466 10474
10584 10572 10559 10548 10537 10523 10510 10500 10492 10482 10473 10462 10452 10440 10432 10425 10419 10413 10409 10404 10400 10398 10395 10393 10392 10392 10392 10394 10394 10395 10395 10396 10398 10399 10401 10404 10408 10412 10417 10421 10426 10432 10438 10445 10451 10458 10464
10568 10560 10548 10540 10531 10517 10506 10495 10485 10477 10467 10457 10447 10437 10428 10420 10415 10410 10403 10400 10397 10394 10393 10391 10390 10391 10391 10391 10392 10393 10394 10394 10396 10397 10399 10401 10405 10409 10413 10417 10421 10426 10432 10437 10442 10448 10455
10554 10545 10537 10527 10519 10509 10499 10487 10477 10468 10459 10450 10440 10431 10421 10415 10409 10404 10400 10394 10390 10390 10388 10387 10387 10387 10388 10388 10389 10390 10390 10391 10392 10394 10396 10398 10401 10405 10409 10413 10418 10422 10426 10431 10435 10441 10446
10540 10532 10525 10517 10507 10495 10488 10480 10468 10460 10450 10442 10433 10424 10415 10408 10403 10397 10392 10389 10385 10381 10382 10381 10381 10382 10382 10384 10385 10386 10386 10387 10389 10391 10392 10394 10397 10401 10405 10409 10413 10417 10421 10425 10429 10434 10438
10525 10519 10513 10504 10494 10484 10476 10467 10457 10450 10441 10433 10425 10416 10408 10399 10397 10390 10386 10382 10379 10376 10374 10374 10374 10374 10376 10378 10380 10381 10382 10384 10385 10388 10390 10391 10394 10397 10399 10403 10407 10411 10415 10419 10423 10427 10431
10512 10505 10499 10491 10481 10471 10463 10454 10445 10439 10430 10424 10417 10408 10400 10391 10388 10382 10378 10373 10370 10368 10366 10365 10366 10366 10369 10370 10373 10376 10377 10379 10382 10385 10387 10389 10391 10394 10397 10400 10403 10406 10410 10414 10418 10422 10425
10496 10490 10484 10476 10465 10455 10449 10442 10433 10427 10420 10412 10407 10399 10391 10382 10378 10373 10368 10364 10361 10359 10358 10357 10357 10359 10360 10363 10366 10370 10372 10374 10377 10381 10383 10387 10390 10392 10395 10398 10401 10405 10409 10412 10415 10419 10423